BADR-5

Last updated on Jan. 27, 2020, 4:38 a.m. UTC

1 36592U 10025A   20026.78175958  .00000139  00000-0  00000+0 0  9995
2 36592   0.0387 110.0137 0001159 143.8875 179.0093  1.00273468 35503
UTC
Height (km)
Latitude
Longitude
Inclination
Orbital Period
UTC large
Height (km)
Speed (km/s)
/
Latitude / Longitude
Inclination (degrees)
Orbital Period (minutes)
Azimuth
Elevation
Range (km)
Doppler Factor
iOS Compass Heading
iOS Angle

Next 30 passes for location: Hong Kong

Rise time Rise Azimuth (degrees) Set time Set Azimuth (degrees) Duration Max altitude (degrees)

No matching passes for this satellites